KUIPER-00085

导读 | 豆包

KUIPER-00085是美国亚马逊“柯伊伯计划”中的一颗近地轨道互联网卫星,于2025年7月16日在美国佛罗里达州空军东部试验场发射升空。该卫星运行在平均高度约636公里的近地轨道,倾角51.9度,轨道周期约97.3分钟,目前处于 operational 在轨运行状态。它旨在为全球提供高速卫星宽带互联网服务,是柯伊伯计划构建数千颗卫星星座的组成部分,将与星链项目展开竞争。

基本信息
目录编号:
64831
目录名称:
KUIPER-00085
国际标识:
2025-151R
轨道中心:
EARTH
卫星名称:
KUIPER-00085
卫星全名:
KUIPER-00085
卫星状态:
在轨 (已飞行230 天)
发射日期:
2025-07-16 UTC
国别 :
美国 (US)
星等 :
--
轨道信息
数据来源 国际轨道数据
星历时间: 2026-03-02T18:43:01+0800
14小时前
查看轨道信息
半长轴: 7007.625km
偏心率: 0.0000671
轨道倾角: 51.904°
近地点辐角 101.025°
升交点赤经 320.157°
平近点角 259.078°
近地点: 629.017km
远地点: 629.959km
周期: 97.301分钟
每日圈数: 14.799484
详细信息
使用方式:
暂无
2D轨道图
3D轨道图
轨道高度分析图
轨道倾角分析图
轨道综合分析图
查看轨道综合分析图